#datetime,building,power
2022-01-17T06:25:00,ths,4.30
2022-01-17T06:26:00,ths,3.43
2022-01-17T06:27:00,ths,3.60
2022-01-17T06:28:00,ths,3.58
2022-01-17T06:29:00,ths,3.61
2022-01-17T06:30:00,ths,3.72
2022-01-17T06:31:00,ths,3.71
2022-01-17T06:32:00,ths,3.69
2022-01-17T06:33:00,ths,3.85
2022-01-17T06:34:00,ths,5.59
2022-01-17T06:35:00,ths,5.63
2022-01-17T06:36:00,ths,5.60
2022-01-17T06:37:00,ths,4.86
2022-01-17T06:38:00,ths,4.81
2022-01-17T06:39:00,ths,4.91
2022-01-17T06:40:00,ths,4.88
2022-01-17T06:41:00,ths,4.86
2022-01-17T06:42:00,ths,4.84
2022-01-17T06:43:00,ths,3.87
2022-01-17T06:44:00,ths,3.82
2022-01-17T06:45:00,ths,4.77
2022-01-17T06:46:00,ths,5.88
2022-01-17T06:47:00,ths,5.76
2022-01-17T06:48:00,ths,5.74
2022-01-17T06:49:00,ths,5.78
2022-01-17T06:50:00,ths,5.83
2022-01-17T06:51:00,ths,6.73
2022-01-17T06:52:00,ths,6.05
2022-01-17T06:53:00,ths,6.04
2022-01-17T06:54:00,ths,6.48
2022-01-17T06:55:00,ths,7.07
2022-01-17T06:56:00,ths,6.62
2022-01-17T06:57:00,ths,5.70
2022-01-17T06:58:00,ths,4.78
2022-01-17T06:59:00,ths,5.01
2022-01-17T07:00:00,ths,5.15
2022-01-17T07:01:00,ths,5.96
2022-01-17T07:02:00,ths,5.62
2022-01-17T07:03:00,ths,4.68
2022-01-17T07:04:00,ths,4.67
2022-01-17T07:05:00,ths,4.43
2022-01-17T07:06:00,ths,4.47
2022-01-17T07:07:00,ths,4.21
2022-01-17T07:08:00,ths,3.59
2022-01-17T07:09:00,ths,3.64
2022-01-17T07:10:00,ths,3.56
2022-01-17T07:11:00,ths,3.60
2022-01-17T07:12:00,ths,3.69
2022-01-17T07:13:00,ths,3.85
2022-01-17T07:14:00,ths,4.35
2022-01-17T07:15:00,ths,5.40
2022-01-17T07:16:00,ths,5.46
2022-01-17T07:17:00,ths,5.47
2022-01-17T07:18:00,ths,5.70
2022-01-17T07:19:00,ths,6.95
2022-01-17T07:20:00,ths,6.79
2022-01-17T07:21:00,ths,6.69
2022-01-17T07:22:00,ths,7.82
2022-01-17T07:23:00,ths,7.67
2022-01-17T07:24:00,ths,6.06
2022-01-17T07:25:00,ths,5.91
2022-01-17T07:26:00,ths,5.83
2022-01-17T07:27:00,ths,5.77
2022-01-17T07:28:00,ths,5.75
2022-01-17T07:29:00,ths,4.76
2022-01-17T07:30:00,ths,4.81
2022-01-17T07:31:00,ths,4.82
2022-01-17T07:32:00,ths,5.04
2022-01-17T07:33:00,ths,4.31
2022-01-17T07:34:00,ths,4.18
2022-01-17T07:35:00,ths,4.14
2022-01-17T07:36:00,ths,4.52
2022-01-17T07:37:00,ths,4.52
2022-01-17T07:38:00,ths,4.52
2022-01-17T07:39:00,ths,5.39
2022-01-17T07:40:00,ths,5.42
2022-01-17T07:41:00,ths,5.43
2022-01-17T07:42:00,ths,5.51
2022-01-17T07:43:00,ths,5.49
2022-01-17T07:44:00,ths,4.51
2022-01-17T07:45:00,ths,3.73
2022-01-17T07:46:00,ths,3.56
2022-01-17T07:47:00,ths,3.56
2022-01-17T07:48:00,ths,3.82
2022-01-17T07:49:00,ths,5.05
2022-01-17T07:50:00,ths,5.06
2022-01-17T07:51:00,ths,5.68
2022-01-17T07:52:00,ths,5.68
2022-01-17T07:53:00,ths,5.75
2022-01-17T07:54:00,ths,5.69
2022-01-17T07:55:00,ths,6.15
2022-01-17T07:56:00,ths,5.06
2022-01-17T07:57:00,ths,5.97
2022-01-17T07:58:00,ths,6.84
2022-01-17T07:59:00,ths,6.73
2022-01-17T08:00:00,ths,6.82
2022-01-17T08:01:00,ths,6.09
2022-01-17T08:02:00,ths,5.76
2022-01-17T08:03:00,ths,5.63
2022-01-17T08:04:00,ths,5.61
2022-01-17T08:05:00,ths,4.37
2022-01-17T08:06:00,ths,4.47
2022-01-17T08:07:00,ths,4.43
2022-01-17T08:08:00,ths,3.59
2022-01-17T08:09:00,ths,3.58
2022-01-17T08:10:00,ths,3.65
2022-01-17T08:11:00,ths,4.54
2022-01-17T08:12:00,ths,4.64
2022-01-17T08:13:00,ths,4.71
2022-01-17T08:14:00,ths,4.80
2022-01-17T08:15:00,ths,5.41
2022-01-17T08:16:00,ths,5.49
2022-01-17T08:17:00,ths,6.01
2022-01-17T08:18:00,ths,5.54
2022-01-17T08:19:00,ths,5.62
2022-01-17T08:20:00,ths,5.61
2022-01-17T08:21:00,ths,5.92
2022-01-17T08:22:00,ths,5.67
2022-01-17T08:23:00,ths,5.72
2022-01-17T08:24:00,ths,6.53
2022-01-17T08:25:00,ths,6.48
2022-01-17T08:26:00,ths,6.47
2022-01-17T08:27:00,ths,4.96
2022-01-17T08:28:00,ths,4.98
2022-01-17T08:29:00,ths,5.69
2022-01-17T08:30:00,ths,6.50
2022-01-17T08:31:00,ths,6.58
2022-01-17T08:32:00,ths,6.45
2022-01-17T08:33:00,ths,5.21
2022-01-17T08:34:00,ths,5.22
2022-01-17T08:35:00,ths,6.10
2022-01-17T08:36:00,ths,5.85
2022-01-17T08:37:00,ths,5.82
2022-01-17T08:38:00,ths,4.79
2022-01-17T08:39:00,ths,5.84
2022-01-17T08:40:00,ths,7.07
2022-01-17T08:41:00,ths,7.05
2022-01-17T08:42:00,ths,7.07
2022-01-17T08:43:00,ths,7.28
2022-01-17T08:44:00,ths,6.54
2022-01-17T08:45:00,ths,6.00
2022-01-17T08:46:00,ths,5.74
2022-01-17T08:47:00,ths,7.60
2022-01-17T08:48:00,ths,8.01
2022-01-17T08:49:00,ths,4.07
2022-01-17T08:50:00,ths,4.24
2022-01-17T08:51:00,ths,4.18
2022-01-17T08:52:00,ths,5.20
2022-01-17T08:53:00,ths,6.88
2022-01-17T08:54:00,ths,6.86
2022-01-17T08:55:00,ths,6.75
2022-01-17T08:56:00,ths,6.78
2022-01-17T08:57:00,ths,3.85
2022-01-17T08:58:00,ths,3.74
2022-01-17T08:59:00,ths,3.74
2022-01-17T09:00:00,ths,4.80
2022-01-17T09:01:00,ths,4.84
2022-01-17T09:02:00,ths,4.92
2022-01-17T09:03:00,ths,4.92
2022-01-17T09:04:00,ths,5.00
2022-01-17T09:05:00,ths,5.04
2022-01-17T09:06:00,ths,5.01
2022-01-17T09:07:00,ths,4.95
2022-01-17T09:08:00,ths,4.84
2022-01-17T09:09:00,ths,4.65
2022-01-17T09:10:00,ths,3.83
2022-01-17T09:11:00,ths,5.02
2022-01-17T09:12:00,ths,5.82
2022-01-17T09:13:00,ths,5.89
2022-01-17T09:14:00,ths,6.91
2022-01-17T09:15:00,ths,6.84
2022-01-17T09:16:00,ths,6.83
2022-01-17T09:17:00,ths,6.98
2022-01-17T09:18:00,ths,5.81
2022-01-17T09:19:00,ths,4.14
2022-01-17T09:20:00,ths,6.72
2022-01-17T09:21:00,ths,6.85
2022-01-17T09:22:00,ths,7.98
2022-01-17T09:23:00,ths,8.06
2022-01-17T09:24:00,ths,7.96
2022-01-17T09:25:00,ths,8.03
2022-01-17T09:26:00,ths,8.15
2022-01-17T09:27:00,ths,7.95
2022-01-17T09:28:00,ths,7.00
2022-01-17T09:29:00,ths,6.04
2022-01-17T09:30:00,ths,4.87
2022-01-17T09:31:00,ths,5.02
2022-01-17T09:32:00,ths,3.92
2022-01-17T09:33:00,ths,3.76
2022-01-17T09:34:00,ths,3.80
2022-01-17T09:35:00,ths,4.63
2022-01-17T09:36:00,ths,3.66
2022-01-17T09:37:00,ths,3.84
2022-01-17T09:38:00,ths,3.77
2022-01-17T09:39:00,ths,3.81
2022-01-17T09:40:00,ths,3.79
2022-01-17T09:41:00,ths,3.85
2022-01-17T09:42:00,ths,3.82
2022-01-17T09:43:00,ths,3.93
2022-01-17T09:44:00,ths,5.01
2022-01-17T09:45:00,ths,5.15
2022-01-17T09:46:00,ths,5.07
2022-01-17T09:47:00,ths,5.10
2022-01-17T09:48:00,ths,6.22
2022-01-17T09:49:00,ths,5.96
2022-01-17T09:50:00,ths,5.91
2022-01-17T09:51:00,ths,5.76
2022-01-17T09:52:00,ths,6.38
2022-01-17T09:53:00,ths,7.31
2022-01-17T09:54:00,ths,7.32
2022-01-17T09:55:00,ths,8.48
2022-01-17T09:56:00,ths,6.77
2022-01-17T09:57:00,ths,6.59
2022-01-17T09:58:00,ths,6.62
2022-01-17T09:59:00,ths,6.59
2022-01-17T10:00:00,ths,7.64
2022-01-17T10:01:00,ths,8.47
2022-01-17T10:02:00,ths,5.97
2022-01-17T10:03:00,ths,5.11
2022-01-17T10:04:00,ths,5.08
2022-01-17T10:05:00,ths,6.25
2022-01-17T10:06:00,ths,5.19
2022-01-17T10:07:00,ths,5.14
2022-01-17T10:08:00,ths,5.13
2022-01-17T10:09:00,ths,5.10
2022-01-17T10:10:00,ths,5.81
2022-01-17T10:11:00,ths,5.02
2022-01-17T10:12:00,ths,3.88
2022-01-17T10:13:00,ths,3.80
2022-01-17T10:14:00,ths,4.90
2022-01-17T10:15:00,ths,6.59
2022-01-17T10:16:00,ths,6.53
2022-01-17T10:17:00,ths,4.80
2022-01-17T10:18:00,ths,3.64
2022-01-17T10:19:00,ths,6.37
2022-01-17T10:20:00,ths,5.26
2022-01-17T10:21:00,ths,4.43
2022-01-17T10:22:00,ths,6.04
2022-01-17T10:23:00,ths,4.03
2022-01-17T10:24:00,ths,5.24
2022-01-17T10:25:00,ths,5.10
2022-01-17T10:26:00,ths,6.60
2022-01-17T10:27:00,ths,8.25
2022-01-17T10:28:00,ths,5.98
2022-01-17T10:29:00,ths,7.74
2022-01-17T10:30:00,ths,8.75
2022-01-17T10:31:00,ths,5.68
2022-01-17T10:32:00,ths,5.65
2022-01-17T10:33:00,ths,7.74
2022-01-17T10:34:00,ths,8.83
2022-01-17T10:35:00,ths,5.58
2022-01-17T10:36:00,ths,8.23
2022-01-17T10:37:00,ths,5.75
2022-01-17T10:38:00,ths,4.79
2022-01-17T10:39:00,ths,8.41
2022-01-17T10:40:00,ths,8.54
2022-01-17T10:41:00,ths,6.51
2022-01-17T10:42:00,ths,6.36
2022-01-17T10:43:00,ths,5.62
2022-01-17T10:44:00,ths,5.75
2022-01-17T10:45:00,ths,5.61
2022-01-17T10:46:00,ths,5.12
2022-01-17T10:47:00,ths,5.63
2022-01-17T10:48:00,ths,5.44
2022-01-17T10:49:00,ths,5.42
2022-01-17T10:50:00,ths,5.55
2022-01-17T10:51:00,ths,4.92
2022-01-17T10:52:00,ths,4.89
2022-01-17T10:53:00,ths,4.81
2022-01-17T10:54:00,ths,5.54
2022-01-17T10:55:00,ths,4.84
2022-01-17T10:56:00,ths,4.91
2022-01-17T10:57:00,ths,4.81
2022-01-17T10:58:00,ths,4.83
2022-01-17T10:59:00,ths,4.62
2022-01-17T11:00:00,ths,4.81
2022-01-17T11:01:00,ths,4.83
2022-01-17T11:02:00,ths,3.94
2022-01-17T11:03:00,ths,4.01
2022-01-17T11:04:00,ths,5.02
2022-01-17T11:05:00,ths,5.02
2022-01-17T11:06:00,ths,5.82
2022-01-17T11:07:00,ths,5.92
2022-01-17T11:08:00,ths,5.89
2022-01-17T11:09:00,ths,5.85
2022-01-17T11:10:00,ths,5.63
2022-01-17T11:11:00,ths,5.56
2022-01-17T11:12:00,ths,4.76
2022-01-17T11:13:00,ths,3.89
2022-01-17T11:14:00,ths,4.74
2022-01-17T11:15:00,ths,4.84
2022-01-17T11:16:00,ths,4.78
2022-01-17T11:17:00,ths,4.74
2022-01-17T11:18:00,ths,4.74
2022-01-17T11:19:00,ths,6.86
2022-01-17T11:20:00,ths,7.04
2022-01-17T11:21:00,ths,6.89
2022-01-17T11:22:00,ths,6.02
2022-01-17T11:23:00,ths,5.80
2022-01-17T11:24:00,ths,5.86
2022-01-17T11:25:00,ths,5.71
2022-01-17T11:26:00,ths,4.85
2022-01-17T11:27:00,ths,4.94
2022-01-17T11:28:00,ths,5.06
2022-01-17T11:29:00,ths,3.95
2022-01-17T11:30:00,ths,3.97
2022-01-17T11:31:00,ths,3.88
2022-01-17T11:32:00,ths,3.85
2022-01-17T11:33:00,ths,3.83
2022-01-17T11:34:00,ths,3.84
2022-01-17T11:35:00,ths,3.80
2022-01-17T11:36:00,ths,3.98
2022-01-17T11:37:00,ths,4.52
2022-01-17T11:38:00,ths,4.56
2022-01-17T11:39:00,ths,4.74
2022-01-17T11:40:00,ths,6.82
2022-01-17T11:41:00,ths,6.02
2022-01-17T11:42:00,ths,5.98
2022-01-17T11:43:00,ths,6.94
2022-01-17T11:44:00,ths,7.83
2022-01-17T11:45:00,ths,7.87
2022-01-17T11:46:00,ths,7.83
2022-01-17T11:47:00,ths,7.63
2022-01-17T11:48:00,ths,6.91
2022-01-17T11:49:00,ths,5.75
2022-01-17T11:50:00,ths,4.87
2022-01-17T11:51:00,ths,5.11
2022-01-17T11:52:00,ths,5.11
2022-01-17T11:53:00,ths,5.18
2022-01-17T11:54:00,ths,5.12
2022-01-17T11:55:00,ths,5.14
2022-01-17T11:56:00,ths,5.22
2022-01-17T11:57:00,ths,5.24
2022-01-17T11:58:00,ths,4.21
2022-01-17T11:59:00,ths,4.23
2022-01-17T12:00:00,ths,4.12
2022-01-17T12:01:00,ths,4.09
2022-01-17T12:02:00,ths,4.12
2022-01-17T12:03:00,ths,5.72
2022-01-17T12:04:00,ths,5.32
2022-01-17T12:05:00,ths,5.35
2022-01-17T12:06:00,ths,5.32
2022-01-17T12:07:00,ths,6.96
2022-01-17T12:08:00,ths,5.22
2022-01-17T12:09:00,ths,5.17
2022-01-17T12:10:00,ths,5.15
2022-01-17T12:11:00,ths,4.99
2022-01-17T12:12:00,ths,4.18
2022-01-17T12:13:00,ths,4.23
2022-01-17T12:14:00,ths,4.44
2022-01-17T12:15:00,ths,5.83
2022-01-17T12:16:00,ths,6.19
2022-01-17T12:17:00,ths,6.20
2022-01-17T12:18:00,ths,6.17
2022-01-17T12:19:00,ths,6.88
2022-01-17T12:20:00,ths,7.83
2022-01-17T12:21:00,ths,7.79
2022-01-17T12:22:00,ths,7.98
2022-01-17T12:23:00,ths,9.04
2022-01-17T12:24:00,ths,7.58
2022-01-17T12:25:00,ths,6.85
2022-01-17T12:26:00,ths,6.38
2022-01-17T12:27:00,ths,6.57
2022-01-17T12:28:00,ths,6.43
2022-01-17T12:29:00,ths,5.34
2022-01-17T12:30:00,ths,5.38
2022-01-17T12:31:00,ths,5.45
2022-01-17T12:32:00,ths,4.38
2022-01-17T12:33:00,ths,4.36
2022-01-17T12:34:00,ths,4.36
2022-01-17T12:35:00,ths,4.32
2022-01-17T12:36:00,ths,4.31
2022-01-17T12:37:00,ths,4.32
2022-01-17T12:38:00,ths,4.30
2022-01-17T12:39:00,ths,4.31
2022-01-17T12:40:00,ths,4.30
2022-01-17T12:41:00,ths,4.35
2022-01-17T12:42:00,ths,4.38
2022-01-17T12:43:00,ths,4.38
2022-01-17T12:44:00,ths,5.44
2022-01-17T12:45:00,ths,5.40
2022-01-17T12:46:00,ths,5.31
2022-01-17T12:47:00,ths,6.93
2022-01-17T12:48:00,ths,6.92
2022-01-17T12:49:00,ths,8.39
2022-01-17T12:50:00,ths,8.39
2022-01-17T12:51:00,ths,9.25
2022-01-17T12:52:00,ths,6.18
2022-01-17T12:53:00,ths,5.24
2022-01-17T12:54:00,ths,7.17
2022-01-17T12:55:00,ths,7.15
2022-01-17T12:56:00,ths,6.97
2022-01-17T12:57:00,ths,7.86
2022-01-17T12:58:00,ths,9.31
2022-01-17T12:59:00,ths,8.90
2022-01-17T13:00:00,ths,8.24
2022-01-17T13:01:00,ths,7.48
2022-01-17T13:02:00,ths,7.35
2022-01-17T13:03:00,ths,7.43
2022-01-17T13:04:00,ths,8.45
2022-01-17T13:05:00,ths,8.48
2022-01-17T13:06:00,ths,7.20
2022-01-17T13:07:00,ths,7.22
2022-01-17T13:08:00,ths,7.59
2022-01-17T13:09:00,ths,7.58
2022-01-17T13:10:00,ths,7.38
2022-01-17T13:11:00,ths,7.32
2022-01-17T13:12:00,ths,9.24
2022-01-17T13:13:00,ths,10.98
2022-01-17T13:14:00,ths,9.99
2022-01-17T13:15:00,ths,8.24
2022-01-17T13:16:00,ths,8.05
2022-01-17T13:17:00,ths,8.16
2022-01-17T13:18:00,ths,7.83
2022-01-17T13:19:00,ths,7.97
2022-01-17T13:20:00,ths,6.16
2022-01-17T13:21:00,ths,6.24
2022-01-17T13:22:00,ths,8.21
2022-01-17T13:23:00,ths,8.29
2022-01-17T13:24:00,ths,9.34
2022-01-17T13:25:00,ths,10.46
2022-01-17T13:26:00,ths,9.03
2022-01-17T13:27:00,ths,9.06
2022-01-17T13:28:00,ths,11.05
2022-01-17T13:29:00,ths,10.88
2022-01-17T13:30:00,ths,9.58
2022-01-17T13:31:00,ths,7.98
2022-01-17T13:32:00,ths,5.91
2022-01-17T13:33:00,ths,6.56
2022-01-17T13:34:00,ths,7.73
2022-01-17T13:35:00,ths,7.71
2022-01-17T13:36:00,ths,7.23
2022-01-17T13:37:00,ths,7.00
2022-01-17T13:38:00,ths,7.18
2022-01-17T13:39:00,ths,5.30
2022-01-17T13:40:00,ths,7.16
2022-01-17T13:41:00,ths,7.19
2022-01-17T13:42:00,ths,4.57
2022-01-17T13:43:00,ths,6.24
2022-01-17T13:44:00,ths,6.44
2022-01-17T13:45:00,ths,5.34
2022-01-17T13:46:00,ths,6.72
2022-01-17T13:47:00,ths,6.94
2022-01-17T13:48:00,ths,6.88
2022-01-17T13:49:00,ths,7.03
2022-01-17T13:50:00,ths,7.14
2022-01-17T13:51:00,ths,6.46
2022-01-17T13:52:00,ths,6.44
2022-01-17T13:53:00,ths,6.44
2022-01-17T13:54:00,ths,4.55
2022-01-17T13:55:00,ths,4.62
2022-01-17T13:56:00,ths,4.44
2022-01-17T13:57:00,ths,4.36
2022-01-17T13:58:00,ths,4.68
2022-01-17T13:59:00,ths,4.63
2022-01-17T14:00:00,ths,4.71
2022-01-17T14:01:00,ths,4.16
2022-01-17T14:02:00,ths,4.14
2022-01-17T14:03:00,ths,8.51
2022-01-17T14:04:00,ths,8.50
2022-01-17T14:05:00,ths,8.42
2022-01-17T14:06:00,ths,8.61
2022-01-17T14:07:00,ths,8.51
2022-01-17T14:08:00,ths,8.63
2022-01-17T14:09:00,ths,14.78
2022-01-17T14:10:00,ths,14.64
2022-01-17T14:11:00,ths,15.51
2022-01-17T14:12:00,ths,17.06
2022-01-17T14:13:00,ths,16.52
2022-01-17T14:14:00,ths,16.77
2022-01-17T14:15:00,ths,16.73
2022-01-17T14:16:00,ths,15.70
2022-01-17T14:17:00,ths,14.82
2022-01-17T14:18:00,ths,14.76
2022-01-17T14:19:00,ths,13.81
2022-01-17T14:20:00,ths,13.03
2022-01-17T14:21:00,ths,13.03
2022-01-17T14:22:00,ths,13.00
2022-01-17T14:23:00,ths,12.94
2022-01-17T14:24:00,ths,12.94
2022-01-17T14:25:00,ths,12.96
2022-01-17T14:26:00,ths,13.00
2022-01-17T14:27:00,ths,13.05
2022-01-17T14:28:00,ths,13.03
2022-01-17T14:29:00,ths,13.16
2022-01-17T14:30:00,ths,13.24
2022-01-17T14:31:00,ths,13.31
2022-01-17T14:32:00,ths,13.39
2022-01-17T14:33:00,ths,15.24
2022-01-17T14:34:00,ths,15.75
2022-01-17T14:35:00,ths,16.70
2022-01-17T14:36:00,ths,16.10
2022-01-17T14:37:00,ths,16.39
2022-01-17T14:38:00,ths,16.56
2022-01-17T14:39:00,ths,16.48
2022-01-17T14:40:00,ths,15.30
2022-01-17T14:41:00,ths,15.36
2022-01-17T14:42:00,ths,14.65
2022-01-17T14:43:00,ths,14.61
2022-01-17T14:44:00,ths,10.42
2022-01-17T14:45:00,ths,10.36
2022-01-17T14:46:00,ths,10.39
2022-01-17T14:47:00,ths,14.27
2022-01-17T14:48:00,ths,13.59
2022-01-17T14:49:00,ths,13.53
2022-01-17T14:50:00,ths,10.27
2022-01-17T14:51:00,ths,6.25
2022-01-17T14:52:00,ths,6.36
2022-01-17T14:53:00,ths,4.83
2022-01-17T14:54:00,ths,4.79
2022-01-17T14:55:00,ths,8.88
2022-01-17T14:56:00,ths,14.22
2022-01-17T14:57:00,ths,14.43
2022-01-17T14:58:00,ths,14.31
2022-01-17T14:59:00,ths,6.22
2022-01-17T15:00:00,ths,6.39
2022-01-17T15:01:00,ths,6.27
2022-01-17T15:02:00,ths,6.89
2022-01-17T15:03:00,ths,6.67
2022-01-17T15:04:00,ths,9.94
2022-01-17T15:05:00,ths,9.89
2022-01-17T15:06:00,ths,9.87
2022-01-17T15:07:00,ths,9.90
2022-01-17T15:08:00,ths,7.62
2022-01-17T15:09:00,ths,5.23
2022-01-17T15:10:00,ths,5.37
2022-01-17T15:11:00,ths,5.04
2022-01-17T15:12:00,ths,5.01
2022-01-17T15:13:00,ths,5.12
2022-01-17T15:14:00,ths,5.72
2022-01-17T15:15:00,ths,5.58
2022-01-17T15:16:00,ths,5.49
2022-01-17T15:17:00,ths,5.50
2022-01-17T15:18:00,ths,4.68
2022-01-17T15:19:00,ths,4.69
2022-01-17T15:20:00,ths,5.39
2022-01-17T15:21:00,ths,6.47
2022-01-17T15:22:00,ths,6.46
2022-01-17T15:23:00,ths,6.43
2022-01-17T15:24:00,ths,6.38
2022-01-17T15:25:00,ths,6.37
2022-01-17T15:26:00,ths,7.19
2022-01-17T15:27:00,ths,7.16
2022-01-17T15:28:00,ths,6.05
2022-01-17T15:29:00,ths,6.09
2022-01-17T15:30:00,ths,6.07
2022-01-17T15:31:00,ths,6.13
2022-01-17T15:32:00,ths,6.15
2022-01-17T15:33:00,ths,5.63
2022-01-17T15:34:00,ths,6.37
2022-01-17T15:35:00,ths,6.33
2022-01-17T15:36:00,ths,5.59
2022-01-17T15:37:00,ths,4.95
2022-01-17T15:38:00,ths,6.35
2022-01-17T15:39:00,ths,6.37
2022-01-17T15:40:00,ths,4.69
2022-01-17T15:41:00,ths,4.65
2022-01-17T15:42:00,ths,4.88
2022-01-17T15:43:00,ths,4.40
2022-01-17T15:44:00,ths,4.33
2022-01-17T15:45:00,ths,4.87
2022-01-17T15:46:00,ths,5.01
2022-01-17T15:47:00,ths,6.87
2022-01-17T15:48:00,ths,6.79
2022-01-17T15:49:00,ths,6.69
2022-01-17T15:50:00,ths,6.63
2022-01-17T15:51:00,ths,7.05
2022-01-17T15:52:00,ths,8.09
2022-01-17T15:53:00,ths,8.53
2022-01-17T15:54:00,ths,8.43
2022-01-17T15:55:00,ths,6.01
2022-01-17T15:56:00,ths,6.31
2022-01-17T15:57:00,ths,7.92
2022-01-17T15:58:00,ths,7.74
2022-01-17T15:59:00,ths,6.44
2022-01-17T16:00:00,ths,6.59
2022-01-17T16:01:00,ths,6.45
2022-01-17T16:02:00,ths,6.56
2022-01-17T16:03:00,ths,6.05
2022-01-17T16:04:00,ths,5.21
2022-01-17T16:05:00,ths,5.74
2022-01-17T16:06:00,ths,5.72
2022-01-17T16:07:00,ths,5.24
2022-01-17T16:08:00,ths,5.34
2022-01-17T16:09:00,ths,5.73
2022-01-17T16:10:00,ths,5.80
2022-01-17T16:11:00,ths,5.24
2022-01-17T16:12:00,ths,6.50
2022-01-17T16:13:00,ths,7.47
2022-01-17T16:14:00,ths,7.52
2022-01-17T16:15:00,ths,7.46
2022-01-17T16:16:00,ths,6.58
2022-01-17T16:17:00,ths,6.58
2022-01-17T16:18:00,ths,6.47
2022-01-17T16:19:00,ths,5.62
2022-01-17T16:20:00,ths,5.39
2022-01-17T16:21:00,ths,4.37
2022-01-17T16:22:00,ths,5.34
2022-01-17T16:23:00,ths,5.55
2022-01-17T16:24:00,ths,6.02
2022-01-17T16:25:00,ths,6.12
2022-01-17T16:26:00,ths,5.82
2022-01-17T16:27:00,ths,5.78
2022-01-17T16:28:00,ths,4.96
2022-01-17T16:29:00,ths,4.89
2022-01-17T16:30:00,ths,5.74
2022-01-17T16:31:00,ths,5.30
2022-01-17T16:32:00,ths,5.54
2022-01-17T16:33:00,ths,5.47
2022-01-17T16:34:00,ths,5.52
2022-01-17T16:35:00,ths,4.50
2022-01-17T16:36:00,ths,4.25
2022-01-17T16:37:00,ths,6.40
2022-01-17T16:38:00,ths,7.30
2022-01-17T16:39:00,ths,7.41
2022-01-17T16:40:00,ths,7.33
2022-01-17T16:41:00,ths,7.13
2022-01-17T16:42:00,ths,7.13
2022-01-17T16:43:00,ths,6.06
2022-01-17T16:44:00,ths,6.11
2022-01-17T16:45:00,ths,6.01
2022-01-17T16:46:00,ths,6.58
2022-01-17T16:47:00,ths,5.58
2022-01-17T16:48:00,ths,5.49
2022-01-17T16:49:00,ths,5.55
2022-01-17T16:50:00,ths,5.19
2022-01-17T16:51:00,ths,5.22
2022-01-17T16:52:00,ths,5.22
2022-01-17T16:53:00,ths,5.29
2022-01-17T16:54:00,ths,4.39
2022-01-17T16:55:00,ths,5.44
2022-01-17T16:56:00,ths,5.24
2022-01-17T16:57:00,ths,5.08
2022-01-17T16:58:00,ths,4.30
2022-01-17T16:59:00,ths,5.30
2022-01-17T17:00:00,ths,5.75
2022-01-17T17:01:00,ths,11.11
2022-01-17T17:02:00,ths,11.10
2022-01-17T17:03:00,ths,10.35
2022-01-17T17:04:00,ths,11.05
2022-01-17T17:05:00,ths,10.40
2022-01-17T17:06:00,ths,10.43
2022-01-17T17:07:00,ths,9.61
2022-01-17T17:08:00,ths,10.52
2022-01-17T17:09:00,ths,9.04
2022-01-17T17:10:00,ths,10.70
2022-01-17T17:11:00,ths,10.63
2022-01-17T17:12:00,ths,11.67
2022-01-17T17:13:00,ths,11.87
2022-01-17T17:14:00,ths,11.99
2022-01-17T17:15:00,ths,12.12
2022-01-17T17:16:00,ths,11.00
2022-01-17T17:17:00,ths,11.17
2022-01-17T17:18:00,ths,10.18
2022-01-17T17:19:00,ths,10.06
2022-01-17T17:20:00,ths,10.10
2022-01-17T17:21:00,ths,9.92
2022-01-17T17:22:00,ths,10.18
2022-01-17T17:23:00,ths,10.71
2022-01-17T17:24:00,ths,10.74
2022-01-17T17:25:00,ths,11.81
2022-01-17T17:26:00,ths,11.86
2022-01-17T17:27:00,ths,11.43
2022-01-17T17:28:00,ths,11.52
2022-01-17T17:29:00,ths,11.57
2022-01-17T17:30:00,ths,12.19
2022-01-17T17:31:00,ths,11.92
2022-01-17T17:32:00,ths,12.77
2022-01-17T17:33:00,ths,12.71
2022-01-17T17:34:00,ths,13.71
2022-01-17T17:35:00,ths,13.63
2022-01-17T17:36:00,ths,12.11
2022-01-17T17:37:00,ths,12.00
2022-01-17T17:38:00,ths,11.93
2022-01-17T17:39:00,ths,11.12
2022-01-17T17:40:00,ths,11.09
2022-01-17T17:41:00,ths,9.46
2022-01-17T17:42:00,ths,9.48
2022-01-17T17:43:00,ths,9.50
2022-01-17T17:44:00,ths,9.43
2022-01-17T17:45:00,ths,9.31
2022-01-17T17:46:00,ths,9.62
2022-01-17T17:47:00,ths,10.14
2022-01-17T17:48:00,ths,10.83
2022-01-17T17:49:00,ths,12.00
2022-01-17T17:50:00,ths,11.91
2022-01-17T17:51:00,ths,11.21
2022-01-17T17:52:00,ths,11.15
2022-01-17T17:53:00,ths,11.15
2022-01-17T17:54:00,ths,11.19
2022-01-17T17:55:00,ths,12.79
2022-01-17T17:56:00,ths,11.02
2022-01-17T17:57:00,ths,10.76
2022-01-17T17:58:00,ths,10.76
2022-01-17T17:59:00,ths,10.62
2022-01-17T18:00:00,ths,6.50
2022-01-17T18:01:00,ths,6.56
2022-01-17T18:02:00,ths,5.60
2022-01-17T18:03:00,ths,5.78
2022-01-17T18:04:00,ths,5.67
2022-01-17T18:05:00,ths,5.65
2022-01-17T18:06:00,ths,5.53
2022-01-17T18:07:00,ths,5.51
2022-01-17T18:08:00,ths,5.64
2022-01-17T18:09:00,ths,4.60
2022-01-17T18:10:00,ths,4.59
2022-01-17T18:11:00,ths,5.86
2022-01-17T18:12:00,ths,7.05
2022-01-17T18:13:00,ths,7.29
2022-01-17T18:14:00,ths,6.94
2022-01-17T18:15:00,ths,6.62
2022-01-17T18:16:00,ths,6.64
2022-01-17T18:17:00,ths,12.18
2022-01-17T18:18:00,ths,11.09
2022-01-17T18:19:00,ths,10.36
2022-01-17T18:20:00,ths,11.86
2022-01-17T18:21:00,ths,11.92
2022-01-17T18:22:00,ths,11.91
2022-01-17T18:23:00,ths,11.85
2022-01-17T18:24:00,ths,10.43
2022-01-17T18:25:00,ths,10.19
2022-01-17T18:26:00,ths,9.34
2022-01-17T18:27:00,ths,12.17
2022-01-17T18:28:00,ths,12.06
2022-01-17T18:29:00,ths,12.04
2022-01-17T18:30:00,ths,13.69
2022-01-17T18:31:00,ths,13.61
2022-01-17T18:32:00,ths,13.60
2022-01-17T18:33:00,ths,12.05
2022-01-17T18:34:00,ths,13.73
2022-01-17T18:35:00,ths,13.86
2022-01-17T18:36:00,ths,13.84
2022-01-17T18:37:00,ths,13.86
2022-01-17T18:38:00,ths,12.04
2022-01-17T18:39:00,ths,12.01
2022-01-17T18:40:00,ths,11.88
2022-01-17T18:41:00,ths,11.85
2022-01-17T18:42:00,ths,10.98
2022-01-17T18:43:00,ths,11.14
2022-01-17T18:44:00,ths,12.05
2022-01-17T18:45:00,ths,10.17
2022-01-17T18:46:00,ths,11.90
2022-01-17T18:47:00,ths,11.72
2022-01-17T18:48:00,ths,11.90
2022-01-17T18:49:00,ths,11.89
2022-01-17T18:50:00,ths,9.93
2022-01-17T18:51:00,ths,5.88
2022-01-17T18:52:00,ths,7.07
2022-01-17T18:53:00,ths,7.25
2022-01-17T18:54:00,ths,9.68
2022-01-17T18:55:00,ths,9.83
2022-01-17T18:56:00,ths,11.63
2022-01-17T18:57:00,ths,9.79
2022-01-17T18:58:00,ths,6.65
2022-01-17T18:59:00,ths,7.75
2022-01-17T19:00:00,ths,9.54
2022-01-17T19:01:00,ths,8.81
2022-01-17T19:02:00,ths,12.89
2022-01-17T19:03:00,ths,15.91
2022-01-17T19:04:00,ths,11.56
2022-01-17T19:05:00,ths,11.95
2022-01-17T19:06:00,ths,10.72
2022-01-17T19:07:00,ths,11.03
2022-01-17T19:08:00,ths,12.32
2022-01-17T19:09:00,ths,14.37
2022-01-17T19:10:00,ths,14.27
2022-01-17T19:11:00,ths,13.91
2022-01-17T19:12:00,ths,12.96
2022-01-17T19:13:00,ths,12.66
2022-01-17T19:14:00,ths,10.79
2022-01-17T19:15:00,ths,11.83
2022-01-17T19:16:00,ths,15.53
2022-01-17T19:17:00,ths,13.92
2022-01-17T19:18:00,ths,9.88
2022-01-17T19:19:00,ths,8.77
2022-01-17T19:20:00,ths,8.40
2022-01-17T19:21:00,ths,9.98
2022-01-17T19:22:00,ths,7.19
2022-01-17T19:23:00,ths,7.33
2022-01-17T19:24:00,ths,7.29
2022-01-17T19:25:00,ths,9.10
2022-01-17T19:26:00,ths,10.11
2022-01-17T19:27:00,ths,10.16
2022-01-17T19:28:00,ths,10.10
2022-01-17T19:29:00,ths,11.91
2022-01-17T19:30:00,ths,12.09
2022-01-17T19:31:00,ths,9.28
2022-01-17T19:32:00,ths,9.98
2022-01-17T19:33:00,ths,10.99
2022-01-17T19:34:00,ths,10.69
2022-01-17T19:35:00,ths,8.31
2022-01-17T19:36:00,ths,8.16
2022-01-17T19:37:00,ths,10.14
2022-01-17T19:38:00,ths,10.14
2022-01-17T19:39:00,ths,7.87
2022-01-17T19:40:00,ths,7.21
2022-01-17T19:41:00,ths,9.61
2022-01-17T19:42:00,ths,14.23
2022-01-17T19:43:00,ths,14.11
2022-01-17T19:44:00,ths,14.06
2022-01-17T19:45:00,ths,12.38
2022-01-17T19:46:00,ths,13.85
2022-01-17T19:47:00,ths,13.84
2022-01-17T19:48:00,ths,15.25
2022-01-17T19:49:00,ths,17.40
2022-01-17T19:50:00,ths,17.42
2022-01-17T19:51:00,ths,18.38
2022-01-17T19:52:00,ths,19.03
2022-01-17T19:53:00,ths,19.70
2022-01-17T19:54:00,ths,19.52
2022-01-17T19:55:00,ths,21.65
2022-01-17T19:56:00,ths,19.19
2022-01-17T19:57:00,ths,22.60
2022-01-17T19:58:00,ths,20.62
2022-01-17T19:59:00,ths,19.95
2022-01-17T20:00:00,ths,14.64
2022-01-17T20:01:00,ths,16.47
2022-01-17T20:02:00,ths,16.57
2022-01-17T20:03:00,ths,17.66
2022-01-17T20:04:00,ths,17.56